| time (UTC) | temp F | wind direction | speed knots | gust knots | rain 1hr in | rain 24hr in | rain mn in | humidity % | barometer mb |
| 20260505140636 | 47 | 18 | 0.0 | 2.6 | 0.07 | 0.35 | 0.35 | 89 | 1013.4 |
| 20260505140129 | 47 | 58 | 0.0 | 0.9 | 0.07 | 0.35 | 0.35 | 89 | 1013.2 |
| 20260505124549 | 48 | 9 | 0.9 | 1.7 | 0.12 | 0.26 | 0.27 | 86 | 1012.7 |
| 20260505124049 | 48 | 5 | 0.9 | 1.7 | 0.11 | 0.25 | 0.25 | 85 | 1012.6 |
| 20260505123549 | 48 | 275 | 0.9 | 2.6 | 0.11 | 0.25 | 0.25 | 84 | 1013.5 |
| 20260505123047 | 48 | 275 | 0.9 | 2.6 | 0.11 | 0.25 | 0.25 | 83 | 1013.5 |
| 20260505122547 | 48 | 315 | 0.9 | 2.6 | 0.11 | 0.25 | 0.25 | 82 | 1012.6 |
| 20260505122047 | 48 | 46 | 0.9 | 2.6 | 0.11 | 0.24 | 0.25 | 82 | 1012.2 |
| 20260505121546 | 49 | 41 | 0.0 | 2.6 | 0.10 | 0.23 | 0.23 | 81 | 1011.8 |
| 20260505121044 | 49 | 45 | 0.9 | 2.6 | 0.07 | 0.20 | 0.20 | 80 | 1011.9 |
| 20260505120546 | 49 | 45 | 0.9 | 3.5 | 0.02 | 0.14 | 0.14 | 79 | 1012.2 |
| 20260505120047 | 49 | 44 | 0.9 | 3.5 | 0.02 | 0.14 | 0.14 | 79 | 1012.7 |
| 20260505115543 | 49 | 265 | 0.9 | 3.5 | 0.02 | 0.14 | 0.14 | 78 | 1012.6 |
| 20260505115035 | 49 | 82 | 0.0 | 2.6 | 0.03 | 0.14 | 0.14 | 78 | 1010.4 |
| 20260505114536 | 49 | 86 | 0.9 | 3.5 | 0.07 | 0.14 | 0.14 | 77 | 1010.2 |
| 20260505114023 | 49 | 88 | 0.9 | 3.5 | 0.07 | 0.14 | 0.14 | 77 | 1010.2 |
| 20260505113517 | 49 | 108 | 0.0 | 3.5 | 0.07 | 0.14 | 0.14 | 76 | 1010.1 |
| 20260505113012 | 50 | 70 | 0.0 | 1.7 | 0.07 | 0.14 | 0.14 | 76 | 1010.2 |
| 20260505112506 | 50 | 71 | 0.0 | 2.6 | 0.07 | 0.14 | 0.14 | 75 | 1010.3 |
| 20260505112000 | 50 | 81 | 0.0 | 2.6 | 0.06 | 0.13 | 0.13 | 74 | 1010.5 |
| 20260505110953 | 51 | 355 | 0.9 | 4.3 | 0.05 | 0.12 | 0.13 | 71 | 1011.1 |
| 20260505101952 | 54 | 74 | 1.7 | 10.4 | 0.00 | 0.07 | 0.07 | 53 | 1009.6 |
| 20260505101452 | 54 | 42 | 1.7 | 7.8 | 0.00 | 0.07 | 0.07 | 53 | 1009.6 |
| 20260505100449 | 54 | 300 | 1.7 | 7.8 | 0.00 | 0.07 | 0.07 | 53 | 1009.5 |
| 20260505095449 | 54 | 11 | 1.7 | 7.0 | 0.00 | 0.07 | 0.07 | 53 | 1010.1 |
| 20260505094949 | 54 | 37 | 1.7 | 6.1 | 0.00 | 0.07 | 0.07 | 53 | 1009.8 |
| 20260505093948 | 54 | 92 | 1.7 | 6.1 | 0.00 | 0.07 | 0.07 | 52 | 1009.7 |
| 20260505093450 | 54 | 88 | 1.7 | 6.1 | 0.00 | 0.07 | 0.07 | 53 | 1009.8 |
| 20260505092949 | 54 | 17 | 2.6 | 6.1 | 0.00 | 0.07 | 0.07 | 52 | 1010.0 |
| 20260505092449 | 54 | 49 | 2.6 | 7.0 | 0.00 | 0.07 | 0.07 | 53 | 1009.8 |
| 20260505091949 | 54 | 103 | 2.6 | 7.0 | 0.00 | 0.07 | 0.07 | 53 | 1010.0 |
| 20260505091448 | 54 | 0 | 1.7 | 6.1 | 0.00 | 0.07 | 0.07 | 53 | 1009.8 |
| 20260505090948 | 54 | 272 | 1.7 | 5.2 | 0.00 | 0.07 | 0.07 | 53 | 1009.8 |
| 20260505090449 | 54 | 342 | 0.9 | 5.2 | 0.00 | 0.07 | 0.07 | 53 | 1009.8 |
| 20260505085448 | 54 | 355 | 1.7 | 4.3 | 0.00 | 0.07 | 0.07 | 53 | 1009.7 |
| 20260505084949 | 54 | 22 | 0.9 | 3.5 | 0.00 | 0.07 | 0.07 | 53 | 1009.7 |
| 20260505084449 | 54 | 9 | 0.9 | 4.3 | 0.00 | 0.07 | 0.07 | 53 | 1009.8 |
| 20260505083950 | 55 | 26 | 1.7 | 5.2 | 0.00 | 0.07 | 0.07 | 53 | 1009.6 |
| 20260505083444 | 55 | 71 | 1.7 | 5.2 | 0.00 | 0.07 | 0.07 | 53 | 1009.5 |
| 20260505082943 | 55 | 92 | 1.7 | 5.2 | 0.00 | 0.07 | 0.07 | 53 | 1009.4 |
| 20260505082443 | 55 | 268 | 1.7 | 5.2 | 0.00 | 0.07 | 0.07 | 54 | 1009.3 |
| 20260505081943 | 55 | 355 | 1.7 | 5.2 | 0.00 | 0.07 | 0.07 | 52 | 1009.1 |
| 20260505081443 | 55 | 332 | 1.7 | 6.1 | 0.00 | 0.07 | 0.07 | 53 | 1009.0 |
| 20260505080942 | 55 | 101 | 2.6 | 9.6 | 0.00 | 0.07 | 0.07 | 51 | 1009.0 |
| 20260505080442 | 55 | 5 | 2.6 | 12.2 | 0.00 | 0.07 | 0.07 | 52 | 1008.8 |
| 20260505075943 | 55 | 333 | 2.6 | 12.2 | 0.00 | 0.07 | 0.07 | 51 | 1008.4 |
| 20260505074941 | 55 | 150 | 2.6 | 7.8 | 0.00 | 0.07 | 0.07 | 53 | 1008.3 |
| 20260505073937 | 55 | 5 | 2.6 | 9.6 | 0.01 | 0.07 | 0.07 | 53 | 1008.5 |
| 20260505073436 | 55 | 88 | 2.6 | 9.6 | 0.01 | 0.07 | 0.07 | 56 | 1008.3 |
| 20260505072936 | 54 | 325 | 2.6 | 10.4 | 0.02 | 0.07 | 0.07 | 58 | 1008.5 |
| 20260505072437 | 54 | 9 | 2.6 | 10.4 | 0.03 | 0.07 | 0.07 | 58 | 1008.4 |
| 20260505071936 | 54 | 123 | 2.6 | 7.0 | 0.03 | 0.07 | 0.07 | 61 | 1008.4 |
| 20260505071437 | 54 | 239 | 2.6 | 7.0 | 0.04 | 0.07 | 0.07 | 64 | 1008.3 |
| 20260505070930 | 53 | 46 | 1.7 | 7.0 | 0.05 | 0.07 | 0.07 | 67 | 1008.2 |
| 20260505070423 | 53 | 37 | 1.7 | 3.5 | 0.05 | 0.07 | 0.07 | 69 | 1008.8 |
| 20260505065411 | 53 | 57 | 0.9 | 2.6 | 0.07 | 0.07 | 0.07 | 71 | 1009.3 |
| 20260505064908 | 54 | 96 | 0.9 | 2.6 | 0.07 | 0.07 | 0.07 | 71 | 1009.7 |
| 20260505063854 | 55 | 236 | 0.9 | 2.6 | 0.06 | 0.06 | 0.06 | 70 | 1009.8 |
| 20260505063351 | 55 | 9 | 0.9 | 2.6 | 0.05 | 0.05 | 0.06 | 68 | 1008.2 |
| 20260505062842 | 56 | 18 | 0.9 | 3.5 | 0.05 | 0.05 | 0.05 | 67 | 1009.4 |
| 20260505061830 | 57 | 305 | 1.7 | 7.0 | 0.03 | 0.03 | 0.04 | 64 | 1009.8 |
| 20260505061323 | 58 | 285 | 1.7 | 6.1 | 0.03 | 0.03 | 0.03 | 62 | 1009.2 |
| 20260505060818 | 59 | 315 | 2.6 | 7.0 | 0.02 | 0.02 | 0.02 | 60 | 1009.4 |
| 20260505060312 | 60 | 286 | 2.6 | 10.4 | 0.01 | 0.01 | 0.02 | 58 | 1009.8 |
| 20260505054754 | 63 | 14 | 2.6 | 7.8 | 0.00 | 0.00 | 0.00 | 44 | 1007.8 |
| 20260505054248 | 64 | 302 | 2.6 | 7.8 | 0.00 | 0.00 | 0.00 | 42 | 1007.6 |
| 20260505053742 | 64 | 48 | 2.6 | 7.0 | 0.00 | 0.00 | 0.00 | 41 | 1007.5 |
| 20260505053236 | 65 | 249 | 2.6 | 7.0 | 0.00 | 0.00 | 0.00 | 41 | 1007.5 |
| 20260505052730 | 65 | 58 | 2.6 | 7.8 | 0.00 | 0.00 | 0.00 | 41 | 1007.2 |
| 20260505052224 | 65 | 36 | 2.6 | 8.7 | 0.00 | 0.00 | 0.00 | 40 | 1007.0 |
| 20260505051719 | 66 | 12 | 3.5 | 8.7 | 0.00 | 0.00 | 0.00 | 40 | 1006.8 |
| 20260505051212 | 66 | 302 | 3.5 | 10.4 | 0.00 | 0.00 | 0.00 | 40 | 1006.5 |
| 20260505050706 | 67 | 49 | 3.5 | 8.7 | 0.00 | 0.00 | 0.00 | 40 | 1006.4 |
| 20260505050200 | 67 | 355 | 3.5 | 7.8 | 0.00 | 0.00 | 0.00 | 40 | 1006.1 |
| 20260505041635 | 70 | 18 | 1.7 | 7.8 | 0.00 | 0.00 | 0.00 | 40 | 1005.7 |
| 20260505041135 | 70 | 42 | 1.7 | 5.2 | 0.00 | 0.00 | 0.00 | 40 | 1005.6 |
| 20260505040636 | 71 | 297 | 1.7 | 7.0 | 0.00 | 0.00 | 0.00 | 41 | 1005.4 |
| 20260505035635 | 71 | 294 | 1.7 | 4.3 | 0.00 | 0.00 | 0.00 | 42 | 1005.5 |
| 20260505034635 | 71 | 297 | 2.6 | 7.8 | 0.00 | 0.00 | 0.00 | 43 | 1005.6 |
| 20260505034134 | 71 | 63 | 1.7 | 9.6 | 0.00 | 0.00 | 0.00 | 46 | 1005.4 |
| 20260505033637 | 71 | 313 | 1.7 | 9.6 | 0.00 | 0.00 | 0.00 | 47 | 1005.5 |
| 20260505033137 | 70 | 299 | 1.7 | 6.1 | 0.00 | 0.00 | 0.00 | 52 | 1005.3 |
| 20260505032638 | 70 | 288 | 1.7 | 6.1 | 0.00 | 0.00 | 0.00 | 55 | 1005.2 |
| 20260505032137 | 70 | 294 | 1.7 | 7.0 | 0.00 | 0.00 | 0.00 | 59 | 1005.0 |
| 20260505031635 | 70 | 281 | 0.9 | 7.0 | 0.00 | 0.00 | 0.00 | 64 | 1004.8 |
| 20260505031134 | 70 | 294 | 0.0 | 2.6 | 0.00 | 0.00 | 0.00 | 67 | 1004.6 |
| 20260505030634 | 70 | 140 | 0.0 | 0.0 | 0.00 | 0.00 | 0.00 | 67 | 1004.3 |
| 20260505030134 | 70 | 140 | 0.0 | 0.0 | 0.00 | 0.00 | 0.00 | 66 | 1004.0 |
| 20260505025635 | 71 | 140 | 0.0 | 0.0 | 0.00 | 0.00 | 0.00 | 65 | 1003.8 |
| 20260505025135 | 71 | 140 | 0.0 | 0.0 | 0.00 | 0.00 | 0.00 | 65 | 1003.9 |
| 20260505024635 | 71 | 140 | 0.0 | 0.0 | 0.00 | 0.00 | 0.00 | 65 | 1003.9 |
| 20260505023634 | 71 | 140 | 0.0 | 0.0 | 0.00 | 0.00 | 0.00 | 65 | 1003.8 |
| 20260505023132 | 71 | 140 | 0.0 | 0.9 | 0.00 | 0.00 | 0.00 | 64 | 1003.7 |
| 20260505022128 | 71 | 140 | 0.9 | 1.7 | 0.00 | 0.00 | 0.00 | 64 | 1003.3 |
| 20260505021628 | 72 | 137 | 0.0 | 1.7 | 0.00 | 0.00 | 0.00 | 64 | 1003.5 |
| 20260505021129 | 72 | 137 | 0.0 | 1.7 | 0.00 | 0.00 | 0.00 | 63 | 1003.3 |
| 20260505020629 | 72 | 136 | 0.9 | 2.6 | 0.00 | 0.00 | 0.00 | 63 | 1003.3 |
| 20260505020128 | 72 | 136 | 0.9 | 2.6 | 0.00 | 0.00 | 0.00 | 62 | 1003.2 |
| 20260505015630 | 73 | 134 | 0.9 | 2.6 | 0.00 | 0.00 | 0.00 | 62 | 1003.2 |
| 20260505014616 | 73 | 136 | 0.0 | 1.7 | 0.00 | 0.00 | 0.00 | 61 | 1003.1 |
| 20260505013604 | 74 | 136 | 0.0 | 0.0 | 0.00 | 0.00 | 0.00 | 61 | 1002.9 |
| 20260505013057 | 75 | 136 | 0.0 | 0.0 | 0.00 | 0.00 | 0.00 | 60 | 1002.9 |
| 20260505012045 | 76 | 136 | 0.0 | 0.0 | 0.00 | 0.00 | 0.00 | 57 | 1002.7 |
| 20260505011539 | 76 | 136 | 0.0 | 0.0 | 0.00 | 0.00 | 0.00 | 56 | 1002.6 |
| 20260505011033 | 76 | 136 | 0.0 | 0.0 | 0.00 | 0.00 | 0.00 | 55 | 1002.5 |
| 20260505010527 | 77 | 136 | 0.0 | 0.0 | 0.00 | 0.00 | 0.00 | 55 | 1002.5 |
| 20260505005515 | 78 | 136 | 0.0 | 0.9 | 0.00 | 0.00 | 0.00 | 54 | 1002.5 |
| 20260505005009 | 78 | 136 | 0.0 | 0.9 | 0.00 | 0.00 | 0.00 | 53 | 1002.4 |
| 20260505004503 | 78 | 136 | 0.0 | 0.9 | 0.00 | 0.00 | 0.00 | 52 | 1002.4 |
| 20260505003958 | 78 | 136 | 0.0 | 1.7 | 0.00 | 0.00 | 0.00 | 52 | 1002.5 |
| 20260505003452 | 78 | 136 | 0.0 | 1.7 | 0.00 | 0.00 | 0.00 | 51 | 1002.5 |
| 20260505002944 | 79 | 136 | 0.0 | 0.9 | 0.00 | 0.00 | 0.00 | 51 | 1002.4 |
| 20260505001933 | 79 | 136 | 0.0 | 0.9 | 0.00 | 0.00 | 0.00 | 52 | 1002.5 |
| 20260505001427 | 80 | 136 | 0.0 | 0.9 | 0.00 | 0.00 | 0.00 | 50 | 1002.5 |
| 20260505000415 | 80 | 136 | 0.0 | 0.0 | 0.00 | 0.00 | 0.00 | 49 | 1002.6 |
| 20260504235909 | 80 | 136 | 0.0 | 0.9 | 0.00 | 0.00 | 0.00 | 49 | 1002.6 |
| 20260504235403 | 80 | 136 | 0.0 | 1.7 | 0.00 | 0.00 | 0.00 | 48 | 1002.5 |
| 20260504234856 | 81 | 136 | 0.9 | 1.7 | 0.00 | 0.00 | 0.00 | 47 | 1002.6 |
| 20260504234351 | 81 | 136 | 0.0 | 1.7 | 0.00 | 0.00 | 0.00 | 47 | 1002.6 |
| 20260504233845 | 81 | 136 | 0.0 | 1.7 | 0.00 | 0.00 | 0.00 | 47 | 1002.6 |
| 20260504233340 | 82 | 138 | 0.0 | 1.7 | 0.00 | 0.00 | 0.00 | 46 | 1002.7 |
| 20260504232833 | 82 | 138 | 0.0 | 1.7 | 0.00 | 0.00 | 0.00 | 45 | 1002.6 |
| 20260504231821 | 82 | 138 | 0.0 | 1.7 | 0.00 | 0.00 | 0.00 | 44 | 1002.7 |
| 20260504231315 | 82 | 141 | 0.0 | 1.7 | 0.00 | 0.00 | 0.00 | 44 | 1002.6 |
| 20260504230809 | 83 | 134 | 0.0 | 1.7 | 0.00 | 0.00 | 0.00 | 43 | 1002.7 |
| 20260504230304 | 83 | 134 | 0.0 | 1.7 | 0.00 | 0.00 | 0.00 | 42 | 1002.7 |
| 20260504225757 | 83 | 134 | 0.0 | 1.7 | 0.00 | 0.00 | 0.00 | 42 | 1002.7 |
| 20260504225252 | 83 | 134 | 0.0 | 0.9 | 0.00 | 0.00 | 0.00 | 41 | 1002.5 |
| 20260504224745 | 83 | 134 | 0.0 | 2.6 | 0.00 | 0.00 | 0.00 | 40 | 1002.5 |
| 20260504223733 | 84 | 185 | 0.0 | 4.3 | 0.00 | 0.00 | 0.00 | 41 | 1002.5 |
| 20260504223230 | 85 | 170 | 0.0 | 3.5 | 0.00 | 0.00 | 0.00 | 41 | 1002.4 |
| 20260504222228 | 85 | 180 | 0.9 | 1.7 | 0.00 | 0.00 | 0.00 | 40 | 1002.5 |
| 20260504221225 | 85 | 146 | 0.9 | 2.6 | 0.00 | 0.00 | 0.00 | 40 | 1002.5 |
| 20260504220726 | 85 | 170 | 1.7 | 6.1 | 0.00 | 0.00 | 0.00 | 42 | 1002.5 |
| 20260504220224 | 85 | 169 | 0.9 | 6.1 | 0.00 | 0.00 | 0.00 | 40 | 1002.5 |
| 20260504215724 | 86 | 219 | 0.0 | 2.6 | 0.00 | 0.00 | 0.00 | 43 | 1002.4 |
| 20260504215224 | 86 | 222 | 0.9 | 4.3 | 0.00 | 0.00 | 0.00 | 40 | 1002.5 |
| 20260504214222 | 86 | 152 | 0.9 | 4.3 | 0.00 | 0.00 | 0.00 | 40 | 1002.7 |
| 20260504213222 | 86 | 144 | 0.9 | 5.2 | 0.00 | 0.00 | 0.00 | 40 | 1002.8 |
| 20260504212221 | 86 | 231 | 0.0 | 1.7 | 0.00 | 0.00 | 0.00 | 42 | 1002.7 |
| 20260504211719 | 85 | 210 | 0.0 | 2.6 | 0.00 | 0.00 | 0.00 | 42 | 1002.8 |
| 20260504211219 | 85 | 207 | 0.9 | 5.2 | 0.00 | 0.00 | 0.00 | 40 | 1002.8 |
| 20260504210718 | 85 | 155 | 0.9 | 5.2 | 0.00 | 0.00 | 0.00 | 40 | 1003.0 |
| 20260504210218 | 85 | 165 | 0.9 | 2.6 | 0.00 | 0.00 | 0.00 | 40 | 1003.0 |
| 20260504205712 | 86 | 177 | 0.9 | 2.6 | 0.00 | 0.00 | 0.00 | 42 | 1003.0 |
| 20260504205206 | 85 | 233 | 0.0 | 2.6 | 0.00 | 0.00 | 0.00 | 41 | 1003.1 |
| 20260504203652 | 85 | 246 | 0.9 | 7.8 | 0.00 | 0.00 | 0.00 | 40 | 1003.2 |
| 20260504202657 | 86 | 163 | 1.7 | 7.0 | 0.00 | 0.00 | 0.00 | 40 | 1003.3 |
| 20260504202152 | 86 | 177 | 1.7 | 7.0 | 0.00 | 0.00 | 0.00 | 40 | 1003.3 |
| 20260504201652 | 86 | 155 | 0.9 | 4.3 | 0.00 | 0.00 | 0.00 | 41 | 1003.3 |
| 20260504201153 | 86 | 128 | 0.9 | 4.3 | 0.00 | 0.00 | 0.00 | 40 | 1003.3 |
| 20260504200153 | 86 | 190 | 1.7 | 5.2 | 0.00 | 0.00 | 0.00 | 39 | 1003.6 |
| 20260504195649 | 86 | 220 | 1.7 | 6.1 | 0.00 | 0.00 | 0.00 | 38 | 1003.6 |
| 20260504195149 | 86 | 149 | 0.9 | 6.1 | 0.00 | 0.00 | 0.00 | 39 | 1003.6 |
| 20260504194650 | 86 | 188 | 0.9 | 3.5 | 0.00 | 0.00 | 0.00 | 39 | 1003.6 |
| 20260504194149 | 87 | 184 | 0.9 | 3.5 | 0.00 | 0.00 | 0.00 | 38 | 1003.6 |
| 20260504192646 | 86 | 265 | 0.9 | 5.2 | 0.00 | 0.00 | 0.00 | 41 | 1003.6 |
| 20260504192147 | 86 | 242 | 1.7 | 6.1 | 0.00 | 0.00 | 0.00 | 42 | 1003.6 |
| 20260504191646 | 86 | 231 | 1.7 | 6.1 | 0.00 | 0.00 | 0.00 | 40 | 1003.7 |
| 20260504191146 | 86 | 155 | 1.7 | 5.2 | 0.00 | 0.00 | 0.00 | 41 | 1003.7 |
| 20260504190646 | 86 | 149 | 1.7 | 6.1 | 0.00 | 0.00 | 0.00 | 39 | 1003.7 |
| 20260504190147 | 86 | 161 | 1.7 | 7.0 | 0.00 | 0.00 | 0.00 | 40 | 1003.7 |
| 20260504184142 | 86 | 155 | 0.9 | 2.6 | 0.00 | 0.00 | 0.00 | 44 | 1003.8 |
| 20260504183643 | 86 | 152 | 1.7 | 4.3 | 0.00 | 0.00 | 0.00 | 43 | 1003.8 |
| 20260504183142 | 85 | 227 | 0.9 | 4.3 | 0.00 | 0.00 | 0.00 | 43 | 1003.9 |
| 20260504182641 | 86 | 202 | 0.9 | 3.5 | 0.00 | 0.00 | 0.00 | 44 | 1003.9 |
| 20260504182142 | 85 | 223 | 0.9 | 3.5 | 0.00 | 0.00 | 0.00 | 42 | 1003.8 |
| 20260504181639 | 85 | 213 | 1.7 | 4.3 | 0.00 | 0.00 | 0.00 | 41 | 1003.8 |
| 20260504180139 | 85 | 245 | 0.9 | 4.3 | 0.00 | 0.00 | 0.00 | 44 | 1003.9 |
| 20260504175640 | 85 | 213 | 0.9 | 5.2 | 0.00 | 0.00 | 0.00 | 42 | 1004.0 |
| 20260504175139 | 85 | 215 | 0.9 | 5.2 | 0.00 | 0.00 | 0.00 | 42 | 1004.0 |
| 20260504174137 | 84 | 245 | 1.7 | 5.2 | 0.00 | 0.00 | 0.00 | 43 | 1004.0 |
| 20260504172619 | 83 | 108 | 0.9 | 3.5 | 0.00 | 0.00 | 0.00 | 43 | 1004.2 |
| 20260504172113 | 83 | 264 | 1.7 | 4.3 | 0.00 | 0.00 | 0.00 | 48 | 1004.2 |
| 20260504171606 | 83 | 264 | 1.7 | 4.3 | 0.00 | 0.00 | 0.00 | 44 | 1004.2 |
| 20260504171101 | 83 | 194 | 1.7 | 4.3 | 0.00 | 0.00 | 0.00 | 45 | 1004.2 |
| 20260504170554 | 82 | 275 | 1.7 | 4.3 | 0.00 | 0.00 | 0.00 | 44 | 1004.3 |
| 20260504160444 | 78 | 27 | 1.7 | 5.2 | 0.00 | 0.00 | 0.00 | 50 | 1004.2 |
| 20260504150837 | 75 | 258 | 1.7 | 7.8 | 0.00 | 0.00 | 0.00 | 52 | 1004.4 |
| 20260504150332 | 75 | 279 | 1.7 | 9.6 | 0.00 | 0.00 | 0.00 | 53 | 1004.4 |